sat.trackr.live / text

‹ back to catalog

STARLINK-3879

NORAD 52473 · 2022-049Y

PAYLOAD ACTIVE UNKNOWN

§ Identity

Operator
Country
US
Launch date
2022-05-06
Launch site
AFETR
Launch vehicle
Mass (kg)
RCS (m²)

Purposes: comms

External: N2YO · Heavens-Above · Gunter

§ Orbital elements

Epoch: 2026-09-19T14:29:08.260512Z

Period
93.90 min
Inclination
53.1605°
Eccentricity
0.0001238
Mean motion
15.33544830 rev/d
Perigee alt
464.4 km
Apogee alt
466.1 km
Semi-major
6,843.4 km
B*
-4.5033e-5
RAAN
258.2047°
Arg perigee
70.3964°
Mean anomaly
289.7171°
Rev number
24,166

§ Raw data

STARLINK-38791 52473U 22049Y   26262.60356783 -.00001853  00000+0 -45033-4 0  99912 52473  53.1605 258.2047 0001238  70.3964 289.7171 15.33544830241664

JSON: /api/v1/satellites/52473 · /tle

For live sub-satellite position, see the globe view (requires WebGL).

§ Visibility from observer

Set your observer location to see the next 7 days of passes ≥ 10°. The values pass through the URL so the page stays shareable.

No JS? Fill the form by hand. The geolocation button needs JavaScript.